Voltar ao catálogo

COSMOS 574

AtivoMilitarPO
NORAD 6707·PAYLOAD·🇷🇺 Russia

Lançado Jun 20, 1973 de Plesetsk Cosmodrome

Loading…

Próximas Passagens (próximas 24 horas)

TLE

AtualizadoSource: Space-Track

Época: Sep 14, 2026, 10:34 UTC

1 06707U 73042A   26257.44039044  .00000058  00000-0  46767-4 0  9993
2 06707  82.9491 127.9838 0021483   3.6729 170.8135 13.72429366102919

Acompanhe COSMOS 574 em tempo real com AllMySat

Download on the App Store